Total_Precipitation_Accumulation
0.00 0.00 0.00 0.00 0.00 0.00 0.00 0.01 0.01 0.06 0.18 0.18 0.11 0.16 0.16 0.09 0.05 0.15 0.18 0.20 0.29 0.12 0.00 0.00 0.00 0.00 0.00 0.00 0.00 0.00 0.00 0.00 0.00 0.00 0.00 0.00 0.00 0.00 0.00 0.00 0.00 0.00 0.00
0.00 0.00 0.00 0.00 0.00 0.00 0.00 0.00 0.02 0.04 0.14 0.21 0.19 0.18 0.19 0.18 0.09 0.16 0.22 0.19 0.13 0.03 0.00 0.00 0.00 0.00 0.00 0.00 0.00 0.00 0.00 0.00 0.00 0.00 0.00 0.00 0.00 0.00 0.00 0.00 0.00 0.00 0.00
0.00 0.00 0.00 0.00 0.00 0.00 0.00 0.02 0.03 0.03 0.14 0.25 0.21 0.25 0.24 0.16 0.16 0.15 0.09 0.07 0.07 0.02 0.00 0.00 0.00 0.00 0.00 0.00 0.00 0.00 0.00 0.00 0.00 0.00 0.00 0.00 0.00 0.00 0.00 0.00 0.00 0.00 0.00
0.00 0.00 0.00 0.00 0.00 0.00 0.03 0.09 0.17 0.18 0.15 0.30 0.26 0.41 0.31 0.47 0.45 0.16 0.05 0.10 0.13 0.01 0.00 0.00 0.00 0.00 0.00 0.00 0.00 0.00 0.00 0.00 0.00 0.00 0.00 0.00 0.00 0.00 0.00 0.00 0.00 0.00 0.00
0.00 0.00 0.00 0.00 0.01 0.03 0.06 0.09 0.31 0.36 0.39 0.38 0.76 0.57 0.62 0.46 0.34 0.16 0.07 0.07 0.17 0.05 0.00 0.00 0.00 0.00 0.00 0.00 0.00 0.00 0.00 0.00 0.00 0.00 0.00 0.00 0.00 0.00 0.00 0.00 0.00 0.00 0.00
0.00 0.00 0.00 0.00 0.01 0.01 0.16 0.27 0.25 0.35 0.39 0.50 0.55 0.65 0.41 0.20 0.25 0.29 0.13 0.11 0.09 0.02 0.01 0.00 0.01 0.00 0.00 0.00 0.00 0.00 0.00 0.00 0.00 0.00 0.00 0.00 0.00 0.00 0.00 0.00 0.00 0.00 0.00
0.00 0.00 0.02 0.00 0.03 0.22 0.38 0.19 0.14 0.27 0.66 0.37 0.52 0.51 0.24 0.24 0.14 0.21 0.16 0.08 0.04 0.01 0.01 0.00 0.00 0.00 0.00 0.00 0.00 0.00 0.00 0.00 0.00 0.00 0.00 0.00 0.00 0.00 0.00 0.00 0.00 0.00 0.00
0.00 0.00 0.00 0.00 0.07 0.29 0.27 0.19 0.22 0.40 0.54 0.66 0.84 0.84 0.47 0.24 0.27 0.36 0.16 0.08 0.09 0.01 0.00 0.00 0.00 0.00 0.00 0.00 0.00 0.00 0.00 0.00 0.00 0.00 0.00 0.00 0.00 0.00 0.00 0.00 0.00 0.00 0.00
0.00 0.00 0.00 0.00 0.06 0.14 0.15 0.23 0.33 0.38 0.53 0.69 0.59 0.27 0.19 0.19 0.07 0.11 0.07 0.01 0.00 0.00 0.00 0.00 0.00 0.00 0.00 0.00 0.00 0.00 0.00 0.00 0.00 0.00 0.00 0.00 0.00 0.00 0.00 0.00 0.00 0.00 0.00
0.00 0.00 0.00 0.00 0.01 0.02 0.07 0.20 0.22 0.15 0.31 0.31 0.26 0.14 0.12 0.04 0.02 0.00 0.00 0.00 0.00 0.00 0.00 0.00 0.00 0.00 0.00 0.00 0.00 0.00 0.00 0.00 0.00 0.00 0.00 0.00 0.00 0.00 0.00 0.00 0.00 0.00 0.00
0.00 0.00 0.00 0.00 0.01 0.04 0.06 0.05 0.05 0.07 0.16 0.13 0.08 0.06 0.05 0.03 0.00 0.01 0.03 0.02 0.02 0.00 0.00 0.00 0.00 0.00 0.00 0.00 0.00 0.00 0.00 0.00 0.00 0.00 0.00 0.00 0.00 0.00 0.00 0.00 0.00 0.00 0.00
0.00 0.00 0.00 0.00 0.07 0.04 0.02 0.05 0.06 0.06 0.03 0.01 0.03 0.04 0.02 0.03 0.00 0.00 0.00 0.00 0.01 0.00 0.00 0.00 0.00 0.00 0.00 0.00 0.00 0.00 0.00 0.00 0.00 0.00 0.00 0.00 0.00 0.00 0.00 0.00 0.00 0.00 0.00
0.02 0.01 0.00 0.00 0.04 0.05 0.01 0.00 0.01 0.01 0.00 0.00 0.03 0.05 0.01 0.00 0.00 0.01 0.00 0.00 0.00 0.00 0.00 0.00 0.00 0.00 0.00 0.00 0.00 0.00 0.00 0.00 0.00 0.00 0.00 0.00 0.00 0.00 0.00 0.00 0.00 0.00 0.00
0.07 0.07 0.04 0.03 0.00 0.03 0.02 0.00 0.00 0.00 0.00 0.00 0.01 0.02 0.03 0.02 0.01 0.00 0.00 0.00 0.00 0.00 0.00 0.00 0.00 0.00 0.00 0.00 0.00 0.00 0.00 0.00 0.00 0.00 0.00 0.00 0.00 0.00 0.00 0.00 0.00 0.00 0.00
0.12 0.18 0.22 0.19 0.19 0.20 0.12 0.04 0.01 0.00 0.00 0.00 0.00 0.00 0.01 0.00 0.01 0.02 0.00 0.00 0.00 0.00 0.00 0.00 0.00 0.00 0.00 0.00 0.00 0.00 0.00 0.00 0.00 0.00 0.00 0.00 0.00 0.00 0.00 0.00 0.00 0.00 0.00
0.21 0.30 0.41 0.43 0.47 0.47 0.38 0.22 0.10 0.09 0.07 0.02 0.00 0.01 0.02 0.01 0.01 0.04 0.01 0.01 0.01 0.03 0.00 0.00 0.00 0.00 0.00 0.00 0.00 0.00 0.00 0.00 0.00 0.00 0.00 0.00 0.00 0.00 0.00 0.00 0.00 0.00 0.00
0.65 0.83 0.84 0.76 0.89 1.07 1.34 0.67 0.37 0.31 0.27 0.20 0.16 0.14 0.11 0.08 0.05 0.02 0.04 0.15 0.14 0.06 0.02 0.00 0.00 0.00 0.00 0.00 0.00 0.00 0.00 0.00 0.00 0.00 0.00 0.00 0.00 0.00 0.00 0.00 0.00 0.00 0.00
0.95 1.19 1.09 1.20 2.27 3.47 3.28 1.95 0.76 0.35 0.24 0.20 0.24 0.28 0.25 0.18 0.11 0.20 0.31 0.32 0.16 0.03 0.02 0.00 0.00 0.00 0.00 0.00 0.00 0.00 0.00 0.00 0.00 0.00 0.00 0.00 0.00 0.00 0.00 0.00 0.00 0.00 0.00
0.60 0.52 0.88 1.36 3.07 4.31 3.86 2.17 0.98 0.68 0.45 0.38 0.30 0.29 0.24 0.20 0.15 0.22 0.29 0.26 0.16 0.04 0.02 0.01 0.00 0.00 0.00 0.00 0.00 0.00 0.00 0.00 0.00 0.00 0.00 0.00 0.00 0.00 0.00 0.00 0.00 0.00 0.00
0.27 0.25 0.42 0.67 0.78 1.63 2.61 2.26 1.45 1.01 0.68 0.48 0.32 0.26 0.31 0.24 0.16 0.13 0.08 0.12 0.08 0.07 0.06 0.02 0.02 0.01 0.00 0.00 0.00 0.00 0.00 0.00 0.00 0.00 0.00 0.00 0.00 0.00 0.00 0.00 0.00 0.00 0.00
0.31 0.64 0.69 0.59 0.64 0.57 0.52 0.60 0.65 1.21 1.30 0.73 0.22 0.18 0.24 0.21 0.16 0.10 0.05 0.03 0.01 0.02 0.02 0.03 0.03 0.03 0.03 0.01 0.00 0.00 0.00 0.00 0.00 0.00 0.00 0.00 0.00 0.00 0.00 0.00 0.00 0.00 0.00
0.31 0.48 0.56 0.69 0.72 0.94 0.98 0.76 0.48 0.39 0.33 0.43 0.31 0.27 0.28 0.13 0.10 0.05 0.02 0.02 0.02 0.02 0.01 0.02 0.06 0.05 0.04 0.03 0.02 0.01 0.00 0.00 0.00 0.00 0.00 0.00 0.00 0.00 0.00 0.00 0.00 0.00 0.00
0.18 0.77 1.37 1.01 0.66 0.61 0.71 0.78 0.87 0.59 0.29 0.30 0.39 0.60 0.60 0.57 0.41 0.23 0.13 0.07 0.05 0.04 0.02 0.02 0.02 0.04 0.04 0.03 0.02 0.01 0.00 0.00 0.00 0.00 0.00 0.00 0.00 0.00 0.00 0.00 0.00 0.01 0.01
0.00 0.07 0.51 1.38 1.50 1.08 0.71 0.58 0.55 0.49 0.44 0.35 0.44 1.05 1.32 1.05 0.73 0.37 0.23 0.15 0.09 0.03 0.02 0.01 0.00 0.00 0.01 0.01 0.00 0.00 0.00 0.00 0.01 0.00 0.00 0.00 0.00 0.00 0.00 0.00 0.02 0.02 0.01
0.00 0.00 0.03 0.16 0.46 0.94 1.25 1.33 1.23 1.10 0.74 0.54 0.77 0.81 1.11 1.36 1.44 0.64 0.27 0.17 0.19 0.18 0.10 0.08 0.09 0.08 0.05 0.03 0.02 0.01 0.01 0.02 0.10 0.16 0.08 0.05 0.04 0.05 0.06 0.09 0.13 0.11 0.12
0.00 0.00 0.00 0.00 0.00 0.03 0.16 0.32 0.49 0.79 1.01 1.05 0.92 1.05 1.16 1.28 1.02 0.79 0.97 0.80 0.38 0.20 0.19 0.19 0.21 0.21 0.19 0.15 0.13 0.13 0.18 0.13 0.22 0.34 0.30 0.20 0.27 0.28 0.36 0.30 0.26 0.23 0.31